Regional Weather Roundup
Issued by NWS

Home | Current Version | Previous Version | Text Only | Print | Product List | Glossary Off
Versions: 1 2 3 4 5 6 7 8 9 10 11 12 13 14 15 16 17 18 19 20 21 22 23 24 25 26 27 28 29 30 31 32 33 34 35 36 37 38 39 40 41 42 43 44 45 46 47 48 49 50

545
ASUS43 KOAX 020202
RWRNE

WEATHER ROUNDUP FOR NEBRASKA
NATIONAL WEATHER SERVICE OMAHA NE
900 PM CDT SUN MAY 01 2016

NOTES: SATELLITE DATA IS BEING USED TO AUGMENT CLOUD COVER ABOVE
       12000 FEET.
       "FAIR" INDICATES FEW OR NO CLOUDS BELOW 12,000 FEET WITH NO
       SIGNIFICANT WEATHER AND/OR OBSTRUCTIONS TO VISIBILITY.

  * THESE STATIONS DO NOT REPORT WEATHER SUCH AS RAIN...SNOW OR FOG.

NEZ001>004-019>022-054>056-020300-
NEBRASKA PANHANDLE

CITY           SKY/WX    TMP DP  RH WIND       PRES   REMARKS
SCOTTSBLUFF    CLEAR     46  33  60 NE5       30.24R
ALLIANCE       PTCLDY    37  32  82 SW8       30.22R WCI  31
CHADRON        CLEAR     48  32  53 NE5       30.23R
KIMBALL        CLEAR     36  30  81 W5        30.27R WCI  32
SIDNEY         CLOUDY    37  30  75 W9        30.26R WCI  30
$$

NEZ057>060-069>072-079>082-020300-
SOUTHWEST NEBRASKA

CITY           SKY/WX    TMP DP  RH WIND       PRES   REMARKS
NORTH PLATTE   CLOUDY    46  35  65 N6        30.21R
IMPERIAL       MOCLDY    44  33  65 N8        30.24R
LEXINGTON      CLEAR     44  37  78 SE3       30.20R
MCCOOK         CLOUDY    49  36  61 CALM      30.20R
$$

NEZ005>010-023>029-035>040-094-020300-
NORTH CENTRAL NEBRASKA

CITY           SKY/WX    TMP DP  RH WIND       PRES   REMARKS
VALENTINE      CLEAR     50  31  48 N3        30.21R
AINSWORTH      CLEAR     44  34  69 N3        30.21R
BROKEN BOW     PTCLDY    46  37  71 NE6       30.19R
ORD            CLOUDY    47  41  80 N5        30.18R
$$

NEZ041-046>049-061>064-073>077-083>087-020300-
SOUTH CENTRAL NEBRASKA

CITY           SKY/WX    TMP DP  RH WIND       PRES   REMARKS
GRAND ISLAND   CLOUDY    47  41  80 NW6       30.19S
AURORA         CLOUDY    47  45  91 NW7       30.18S
HASTINGS       CLOUDY    47  41  80 N5        30.18R
KEARNEY *      CLOUDY    45  39  81 N3        30.20S
YORK           CLOUDY    46  45  93 N5        30.18R
$$

NEZ011>018-030>034-042>045-020300-
NORTHEAST NEBRASKA

CITY           SKY/WX    TMP DP  RH WIND       PRES   REMARKS
NORFOLK        MOCLDY    49  40  71 CALM      30.17R
ALBION         CLOUDY    48  41  77 N3        30.18S
BLAIR          CLOUDY    49  45  87 CALM      30.15R
COLUMBUS *     CLOUDY    48  37  66 CALM      30.19R
FREMONT        CLOUDY    48  44  85 W3        30.17R
TEKAMAH        CLOUDY    50  46  86 NW5       30.16R
$$

NEZ050>053-065>068-078-088>093-020300-
SOUTHEAST NEBRASKA

CITY           SKY/WX    TMP DP  RH WIND       PRES   REMARKS
LINCOLN        CLOUDY    50  43  77 NW3       30.18R
OMAHA EPPLEY   CLOUDY    50  44  80 W3        30.15R
FALLS CITY     CLOUDY    49  43  80 N8        30.12S
$$

NEZ044-045-051>053-067-020300-
OMAHA AREA

CITY           SKY/WX    TMP DP  RH WIND       PRES   REMARKS
OMAHA EPPLEY   CLOUDY    50  44  80 W3        30.15R
BLAIR          CLOUDY    49  45  87 CALM      30.15R
FREMONT        CLOUDY    48  44  85 W3        30.17R
$$




USA.gov is the U.S. government's official web portal to all federal, state and local government web resources and services.